| time (UTC) | temp F | wind direction | speed knots | gust knots | rain 1hr in | rain 24hr in | rain mn in | humidity % | barometer mb |
| 20260504011839 | 53 | 188 | 0.0 | 0.0 | 0.00 | 0.00 | 0.00 | 55 | 1012.6 |
| 20260504010336 | 54 | 188 | 0.0 | 0.0 | 0.00 | 0.00 | 0.00 | 56 | 1012.2 |
| 20260504004834 | 54 | 188 | 0.0 | 0.0 | 0.00 | 0.00 | 0.00 | 53 | 1012.1 |
| 20260504003328 | 55 | 188 | 0.0 | 0.0 | 0.00 | 0.00 | 0.00 | 51 | 1011.8 |
| 20260504001831 | 57 | 188 | 0.0 | 0.0 | 0.00 | 0.00 | 0.00 | 47 | 1011.6 |
| 20260504000326 | 58 | 188 | 0.0 | 0.0 | 0.00 | 0.00 | 0.00 | 45 | 1011.5 |
| 20260503234825 | 59 | 188 | 0.0 | 0.0 | 0.00 | 0.00 | 0.00 | 43 | 1011.4 |
| 20260503233342 | 60 | 188 | 0.0 | 0.9 | 0.00 | 0.00 | 0.00 | 41 | 1011.5 |
| 20260503231835 | 61 | 291 | 1.7 | 4.3 | 0.00 | 0.00 | 0.00 | 40 | 1011.3 |
| 20260503230334 | 61 | 329 | 0.0 | 2.6 | 0.00 | 0.00 | 0.00 | 41 | 1011.2 |
| 20260503224850 | 61 | 334 | 0.9 | 3.5 | 0.00 | 0.00 | 0.00 | 39 | 1011.2 |
| 20260503223330 | 62 | 1 | 0.0 | 4.3 | 0.00 | 0.00 | 0.00 | 39 | 1011.3 |
| 20260503221825 | 62 | 134 | 0.9 | 6.1 | 0.00 | 0.00 | 0.00 | 38 | 1011.4 |
| 20260503220322 | 62 | 309 | 0.9 | 4.3 | 0.00 | 0.00 | 0.00 | 38 | 1011.4 |
| 20260503214839 | 62 | 302 | 1.7 | 6.1 | 0.00 | 0.00 | 0.00 | 38 | 1011.1 |
| 20260503213353 | 62 | 312 | 0.0 | 7.8 | 0.00 | 0.00 | 0.00 | 39 | 1011.2 |
| 20260503211831 | 62 | 284 | 2.6 | 5.2 | 0.00 | 0.00 | 0.00 | 37 | 1011.1 |
| 20260503210327 | 62 | 237 | 0.9 | 6.1 | 0.00 | 0.00 | 0.00 | 37 | 1011.1 |
| 20260503204823 | 62 | 320 | 3.5 | 7.8 | 0.00 | 0.00 | 0.00 | 38 | 1011.1 |
| 20260503203339 | 63 | 315 | 0.9 | 4.3 | 0.00 | 0.00 | 0.00 | 37 | 1011.2 |
| 20260503201837 | 64 | 56 | 0.9 | 6.1 | 0.00 | 0.00 | 0.00 | 35 | 1011.3 |
| 20260503200330 | 64 | 225 | 0.9 | 5.2 | 0.00 | 0.00 | 0.00 | 36 | 1011.6 |
| 20260503194831 | 63 | 314 | 2.6 | 7.8 | 0.00 | 0.00 | 0.00 | 35 | 1011.6 |
| 20260503193326 | 63 | 322 | 1.7 | 5.2 | 0.00 | 0.00 | 0.00 | 35 | 1011.8 |
| 20260503191820 | 64 | 218 | 0.9 | 9.6 | 0.00 | 0.00 | 0.00 | 36 | 1012.1 |
| 20260503190322 | 63 | 31 | 1.7 | 8.7 | 0.00 | 0.00 | 0.00 | 38 | 1012.1 |
| 20260503184837 | 63 | 16 | 0.0 | 3.5 | 0.00 | 0.00 | 0.00 | 39 | 1012.1 |
| 20260503183339 | 62 | 265 | 1.7 | 6.1 | 0.00 | 0.00 | 0.00 | 39 | 1012.1 |
| 20260503181833 | 61 | 71 | 1.7 | 6.1 | 0.00 | 0.00 | 0.00 | 39 | 1012.4 |
| 20260503180331 | 61 | 286 | 0.9 | 5.2 | 0.00 | 0.00 | 0.00 | 40 | 1012.3 |
| 20260503174825 | 61 | 50 | 0.9 | 5.2 | 0.00 | 0.00 | 0.00 | 41 | 1012.6 |
| 20260503173323 | 59 | 4 | 0.9 | 7.0 | 0.00 | 0.00 | 0.00 | 42 | 1012.6 |
| 20260503171840 | 58 | 270 | 0.0 | 8.7 | 0.00 | 0.00 | 0.00 | 44 | 1012.7 |
| 20260503170335 | 58 | 336 | 1.7 | 5.2 | 0.00 | 0.00 | 0.00 | 43 | 1012.9 |
| 20260503150330 | 54 | 42 | 3.5 | 7.8 | 0.00 | 0.00 | 0.00 | 45 | 1013.2 |
| 20260503130332 | 50 | 19 | 3.5 | 7.8 | 0.00 | 0.00 | 0.00 | 57 | 1013.0 |
| 20260503110327 | 50 | 37 | 2.6 | 5.2 | 0.00 | 0.00 | 0.00 | 62 | 1011.5 |
| 20260503090344 | 51 | 359 | 1.7 | 2.6 | 0.00 | 0.00 | 0.00 | 68 | 1009.5 |
| 20260503080325 | 52 | 22 | 0.0 | 3.5 | 0.00 | 0.00 | 0.00 | 65 | 1008.8 |
| 20260503071857 | 52 | 359 | 0.9 | 5.2 | 0.00 | 0.00 | 0.00 | 69 | 1008.4 |
| 20260503070330 | 52 | 336 | 0.0 | 3.5 | 0.00 | 0.00 | 0.00 | 71 | 1008.2 |
| 20260503060340 | 48 | 65 | 0.0 | 0.0 | 0.00 | 0.00 | 0.00 | 82 | 1007.9 |
| 20260503054854 | 48 | 65 | 0.0 | 0.0 | 0.00 | 0.00 | 0.00 | 81 | 1007.9 |
| 20260503053333 | 48 | 65 | 0.0 | 0.0 | 0.00 | 0.00 | 0.00 | 81 | 1007.9 |
| 20260503051826 | 49 | 65 | 0.0 | 0.0 | 0.00 | 0.00 | 0.00 | 80 | 1007.9 |
| 20260503050329 | 49 | 65 | 0.0 | 0.0 | 0.00 | 0.00 | 0.00 | 78 | 1008.0 |
| 20260503044824 | 50 | 65 | 0.0 | 0.0 | 0.00 | 0.00 | 0.00 | 77 | 1008.1 |
| 20260503043337 | 51 | 65 | 0.0 | 0.0 | 0.00 | 0.00 | 0.00 | 76 | 1007.9 |
| 20260503041856 | 51 | 65 | 0.0 | 0.0 | 0.00 | 0.00 | 0.00 | 76 | 1007.9 |
| 20260503040351 | 51 | 65 | 0.0 | 0.0 | 0.00 | 0.00 | 0.00 | 74 | 1008.2 |
| 20260503034851 | 52 | 65 | 0.0 | 0.0 | 0.00 | 0.00 | 0.00 | 73 | 1008.0 |
| 20260503033324 | 52 | 65 | 0.0 | 0.0 | 0.00 | 0.00 | 0.00 | 73 | 1007.9 |
| 20260503031839 | 53 | 65 | 0.0 | 0.0 | 0.00 | 0.00 | 0.00 | 71 | 1007.9 |
| 20260503030338 | 53 | 65 | 0.0 | 0.0 | 0.00 | 0.00 | 0.00 | 71 | 1007.9 |
| 20260503024835 | 54 | 65 | 0.0 | 0.0 | 0.00 | 0.00 | 0.00 | 70 | 1008.0 |
| 20260503023334 | 54 | 65 | 0.0 | 0.0 | 0.00 | 0.00 | 0.00 | 68 | 1008.1 |
| 20260503021829 | 55 | 65 | 0.0 | 0.0 | 0.00 | 0.00 | 0.00 | 67 | 1007.8 |
| 20260503020328 | 56 | 65 | 0.0 | 0.0 | 0.00 | 0.00 | 0.00 | 65 | 1007.9 |
| 20260503014827 | 56 | 65 | 0.0 | 0.0 | 0.00 | 0.00 | 0.00 | 64 | 1007.8 |
| 20260503013325 | 56 | 67 | 0.0 | 1.7 | 0.00 | 0.00 | 0.00 | 63 | 1007.9 |